[[{"header":{"parameterUnit":"m.s-1","parameterCategory":1,"la1":30.2991,"la2":30.254,"lo1":-89.0895,"lo2":-89.0444,"dy":0.0017,"dx":0.0017,"nx":28,"ny":28,"refTime":"2025-11-07T03:00:00:Z","depth":0,"parameterNumber":2,"parameterNumberName":"U-component_of_WINDS"},"data":[0,0,0,0,0,0,0,0,0,0,0,0,0,0,0,0,0,0,0,0,0,0,0,0,0,0,0,0,0,0,0,0,0,0,0,0,0,0,0,0,0,0,0,0,0,0,0,0,0,0,0,0,0,0,0,0,0,0,1.3821,1.3822,0,1.3904,1.3905,1.3906,1.3938,1.3938,1.3938,1.3937,1.4025,1.4028,1.403,0,0,0,0,0,0,0,0,0,0,0,0,0,1.3693,1.3696,1.3821,1.3822,1.3823,1.3904,1.3905,1.3906,1.3938,1.3938,1.3938,1.3937,1.4024,1.4027,1.403,0,0,0,0,0,0,0,0,0,0,0,0,0,1.376,1.3696,1.3821,1.3849,1.3852,1.3904,1.3905,1.3906,1.3938,1.3938,1.3937,1.3937,1.4023,1.4027,1.4031,1.4061,0,0,1.4042,1.4044,0,0,0,0,0,0,0,0,1.3756,1.3765,1.3843,1.3847,1.3851,1.391,1.3892,1.3958,1.3938,1.3905,1.3937,1.3937,1.3987,1.3994,1.401,1.4066,1.4069,1.4043,1.4045,1.4047,1.4048,0,0,0,0,0,0,0,1.3751,1.3761,1.3854,1.3845,1.3849,1.3858,1.3867,1.3905,1.3947,1.3908,1.3911,1.392,1.3989,1.4007,1.4013,1.4071,1.4043,1.4046,1.4048,1.405,1.4157,1.4157,0,0,0,0,0,0,1.3742,1.3757,1.3851,1.3856,1.3801,1.3861,1.3871,1.3891,1.3947,1.3955,1.392,1.3921,1.4,1.4008,1.4016,1.4057,1.4047,1.405,1.4052,1.4156,1.4157,1.4158,0,0,0,0,0,0,1.3739,1.375,1.3848,1.3807,1.3821,1.3863,1.3886,1.3893,1.3911,1.3956,1.3964,1.393,1.4,1.4011,1.405,1.406,1.4052,1.4055,1.4156,1.4157,1.4157,1.4138,0,0,0,0,0,0,1.3735,1.3749,1.376,1.3807,1.3823,1.3879,1.3887,1.3895,1.3917,1.3919,1.3968,1.3975,1.4001,1.4044,1.4054,1.4065,1.4058,1.4155,1.4156,1.4157,1.4138,1.4138,1.4138,0,0,0,0,0,1.373,1.3751,1.376,1.3771,1.3837,1.388,1.3889,1.3917,1.3918,1.393,1.3959,1.3974,1.4057,1.4048,1.4059,1.4072,1.4155,1.4156,1.4157,1.4138,1.4138,1.4138,0,0,0,0,0,0,1.3704,1.3758,1.3768,1.3805,1.3838,1.3885,1.3901,1.3916,1.395,1.395,1.3985,1.3996,1.4033,1.4056,1.4045,1.4106,1.4107,1.4111,1.4089,1.4089,1.4089,1.4083,1.4062,0,0,0,0,0,1.3702,1.3732,1.3777,1.3805,1.3821,1.3858,1.3878,1.3897,1.3932,1.3947,1.3979,1.4014,1.4048,1.407,1.4104,1.4141,1.4153,1.4156,1.4156,1.4156,1.4158,1.4182,1.4184,1.4162,1.4162,1.4162,0,0,1.3699,1.3732,1.3749,1.3801,1.3828,1.3859,1.387,1.3901,1.3925,1.3952,1.3991,1.4016,1.4057,1.4096,1.4115,1.4117,1.4167,1.4157,1.4157,1.416,1.4183,1.4185,1.4187,1.4162,1.4162,1.4162,0,0,1.371,1.3737,1.3764,1.3792,1.3833,1.3858,1.3864,1.391,1.3928,1.3967,1.3989,1.4018,1.4076,1.4104,1.4127,1.4149,1.4164,1.416,1.416,1.4182,1.4184,1.4186,1.4195,1.4198,1.4162,1.4162,1.4162,0,1.3701,1.3747,1.3776,1.3807,1.383,1.3855,1.3884,1.3909,1.396,1.3976,1.3977,1.4051,1.4081,1.4127,1.4133,1.415,1.4159,1.4154,1.4181,1.4183,1.4186,1.4195,1.4198,1.4161,1.4161,1.4162,1.4162,0,1.3735,1.3767,1.3784,1.3832,1.3857,1.3886,1.3921,1.3943,1.396,1.3985,1.4026,1.4062,1.4105,1.4117,1.4134,1.4167,1.4167,1.4174,1.4177,1.4186,1.4196,1.42,1.416,1.416,1.4161,1.4161,0,0,1.3731,1.3795,1.3801,1.3824,1.3872,1.3897,1.3929,1.397,1.3988,1.4023,1.4051,1.41,1.4107,1.4132,1.4153,1.4173,1.419,1.4178,1.418,1.418,1.423,1.4224,1.4228,1.42,1.4201,1.4201,1.4227,0,1.3748,1.3804,1.3832,1.3877,1.3907,1.3933,1.396,1.3993,1.4018,1.4048,1.4076,1.4111,1.4117,1.4133,1.4153,1.4183,1.4201,1.4182,1.4228,1.4229,1.4217,1.4233,1.4227,1.4249,1.423,1.4231,1.4231,0,1.3776,1.381,1.3857,1.3903,1.3917,1.3941,1.3982,1.401,1.4049,1.4066,1.4095,1.4115,1.415,1.415,1.42,1.4187,1.4207,1.4225,1.4227,1.4233,1.4231,1.424,1.4257,1.426,1.4237,1.4237,1.4236,0,1.3769,1.3827,1.3863,1.3882,1.3936,1.3953,1.3976,1.4015,1.4038,1.4074,1.409,1.4129,1.4151,1.4182,1.4213,1.4209,1.426,1.4262,1.4276,1.4276,1.4286,1.4285,1.4307,1.4298,1.4298,1.4298,1.4298,0,1.3786,1.3814,1.3861,1.3883,1.3917,1.3949,1.3981,1.4007,1.4041,1.407,1.4094,1.4121,1.416,1.4192,1.4217,1.4255,1.4265,1.428,1.4287,1.4279,1.4277,1.4293,1.4293,1.4299,1.4299,1.4298,1.4298,0,1.3784,1.3816,1.3858,1.3906,1.3919,1.3941,1.3983,1.4007,1.4033,1.4069,1.408,1.4121,1.416,1.4194,1.4246,1.4262,1.4302,1.431,1.4289,1.4293,1.4305,1.4304,1.4339,1.4346,1.4331,1.4331,1.4331,0,1.3793,1.3815,1.3866,1.3887,1.391,1.3943,1.3967,1.4001,1.4025,1.4072,1.409,1.4131,1.4165,1.4227,1.4262,1.4302,1.4311,1.4321,1.4317,1.4309,1.4313,1.4311,1.4315,1.4321,1.4321,1.4321,1.4321,0,1.3805,1.3821,1.3854,1.3894,1.3922,1.3954,1.3988,1.4004,1.4044,1.407,1.411,1.4137,1.419,1.4231,1.4275,1.4301,1.4318,1.4322,1.4327,1.432,1.4307,1.4316,1.429,1.4321,1.4321,1.4321,1.4321,1.4321,1.381,1.3832,1.3871,1.3908,1.3937,1.3968,1.3993,1.4023,1.4057,1.4102,1.412,1.4161,1.4201,1.4262,1.4288,1.4322,1.4325,1.4332,1.4335,1.4336,1.4336,1.4301,1.433,1.433,1.433,1.433,1.433,0,1.3825,1.3852,1.3885,1.3932,1.3961,1.3975,1.4013,1.4037,1.4073,1.4109,1.4142,1.4189,1.4229,1.4268,1.431,1.433,1.4339,1.434,1.434,1.4345,1.433,1.4321,1.4332,1.4332,1.4332,1.4332,1.4332,1.4332,1.3836,1.3874,1.3894,1.3947,1.3975,1.4015,1.4036,1.4066,1.4094,1.4146,1.4179,1.4204,1.4241,1.4287,1.4325,1.4335,1.435,1.4349,1.4362,1.4347,1.4346,1.4346,1.4338,1.4352,1.4352,1.4375,1.4375,1.4375]},{"header":{"parameterUnit":"m.s-1","parameterCategory":1,"la1":30.2991,"la2":30.254,"lo1":-89.0895,"lo2":-89.0444,"dy":0.0017,"dx":0.0017,"nx":28,"ny":28,"refTime":"2025-11-07T03:00:00:Z","depth":0,"parameterNumber":3,"parameterNumberName":"V-component_of_WINDS"},"data":[0,0,0,0,0,0,0,0,0,0,0,0,0,0,0,0,0,0,0,0,0,0,0,0,0,0,0,0,0,0,0,0,0,0,0,0,0,0,0,0,0,0,0,0,0,0,0,0,0,0,0,0,0,0,0,0,0,0,3.3207,3.3207,0,3.3234,3.3235,3.3235,3.3239,3.3239,3.3239,3.3238,3.3263,3.3264,3.3264,0,0,0,0,0,0,0,0,0,0,0,0,0,3.3155,3.3156,3.3207,3.3207,3.3208,3.3234,3.3235,3.3235,3.3239,3.3239,3.3239,3.3238,3.3262,3.3263,3.3264,0,0,0,0,0,0,0,0,0,0,0,0,0,3.3179,3.3156,3.3207,3.3213,3.3214,3.3234,3.3235,3.3235,3.3239,3.3239,3.3239,3.3238,3.3262,3.3263,3.3265,3.3279,0,0,3.3269,3.3269,0,0,0,0,0,0,0,0,3.3178,3.3181,3.3212,3.3213,3.3214,3.3233,3.3225,3.325,3.3239,3.323,3.3238,3.3238,3.3253,3.3255,3.3261,3.3281,3.3282,3.3269,3.3269,3.327,3.327,0,0,0,0,0,0,0,3.3176,3.318,3.3218,3.3212,3.3213,3.3213,3.3216,3.323,3.3243,3.323,3.3231,3.3234,3.3253,3.3259,3.3261,3.3282,3.3269,3.327,3.3271,3.3271,3.3315,3.3316,0,0,0,0,0,0,3.3174,3.3179,3.3217,3.3219,3.3195,3.3215,3.3218,3.3227,3.3243,3.3245,3.3234,3.3234,3.3257,3.326,3.3262,3.3281,3.327,3.3271,3.3272,3.3315,3.3315,3.3316,0,0,0,0,0,0,3.3173,3.3177,3.3216,3.3199,3.3204,3.3216,3.3226,3.3228,3.3234,3.3246,3.3248,3.3239,3.3257,3.326,3.3275,3.3281,3.3272,3.3273,3.3314,3.3315,3.3315,3.3317,0,0,0,0,0,0,3.3171,3.3177,3.3184,3.3199,3.3205,3.323,3.3226,3.3229,3.3237,3.3237,3.325,3.3252,3.3257,3.3273,3.3277,3.3283,3.3274,3.3314,3.3315,3.3315,3.3317,3.3318,3.3319,0,0,0,0,0,3.3169,3.3182,3.3184,3.3188,3.3213,3.323,3.3233,3.324,3.3237,3.3243,3.3251,3.3251,3.328,3.3275,3.3279,3.3285,3.3313,3.3314,3.3315,3.3316,3.3318,3.3319,0,0,0,0,0,0,3.3166,3.3184,3.3186,3.3205,3.3216,3.3231,3.3239,3.3241,3.3252,3.3252,3.3259,3.3262,3.3276,3.3282,3.3276,3.33,3.3296,3.3298,3.3296,3.3297,3.3299,3.3297,3.3275,0,0,0,0,0,3.3167,3.3181,3.3196,3.321,3.3216,3.3226,3.3234,3.3238,3.325,3.3254,3.3262,3.3272,3.3284,3.3291,3.3302,3.3318,3.332,3.3324,3.3325,3.3326,3.3327,3.3336,3.3338,3.3319,3.3319,3.3319,0,0,3.317,3.3182,3.319,3.321,3.3219,3.3231,3.323,3.3243,3.3252,3.3256,3.3271,3.3277,3.3289,3.3304,3.3311,3.331,3.3333,3.3327,3.3328,3.3329,3.3337,3.3339,3.334,3.3319,3.3319,3.3319,0,0,3.3182,3.3192,3.3206,3.3216,3.323,3.3237,3.324,3.3255,3.326,3.3275,3.3278,3.3288,3.3307,3.3315,3.3322,3.3337,3.3338,3.334,3.3346,3.3354,3.3356,3.3357,3.3362,3.3364,3.3342,3.3342,3.3342,0,3.3183,3.3204,3.3212,3.3226,3.3234,3.3239,3.3252,3.326,3.3277,3.3282,3.328,3.3305,3.3313,3.333,3.3334,3.3339,3.3343,3.3339,3.3355,3.3356,3.3358,3.3363,3.3365,3.3342,3.3342,3.3342,3.3342,0,3.3204,3.3218,3.3227,3.3245,3.3254,3.3267,3.3277,3.3285,3.3289,3.3295,3.3311,3.3321,3.3334,3.3338,3.3341,3.3356,3.3355,3.3354,3.335,3.336,3.3364,3.3366,3.3342,3.3342,3.3342,3.3342,0,0,3.3214,3.3237,3.324,3.3248,3.3265,3.3275,3.3288,3.3302,3.3309,3.332,3.3331,3.3347,3.3347,3.3354,3.3358,3.3365,3.3376,3.3363,3.3364,3.3365,3.3393,3.3394,3.3396,3.3377,3.3378,3.3378,3.3392,0,3.3228,3.3253,3.3261,3.3281,3.3294,3.3298,3.331,3.332,3.3327,3.3338,3.3344,3.3356,3.3354,3.3359,3.3366,3.3373,3.3382,3.3373,3.3386,3.3386,3.3383,3.3398,3.3399,3.3412,3.3394,3.3394,3.3394,0,3.3247,3.326,3.3282,3.3297,3.3303,3.3313,3.3327,3.3337,3.3349,3.3353,3.3362,3.3365,3.3378,3.3373,3.339,3.3384,3.339,3.3394,3.3395,3.3396,3.3391,3.34,3.3416,3.3418,3.3397,3.3397,3.3397,0,3.3252,3.3275,3.3291,3.3298,3.3316,3.3323,3.333,3.3342,3.335,3.3361,3.3367,3.3379,3.3385,3.3394,3.3401,3.3397,3.3417,3.3413,3.342,3.342,3.3424,3.3424,3.3441,3.3428,3.3428,3.3428,3.3428,0,3.3266,3.3279,3.3294,3.3304,3.3318,3.3327,3.3341,3.3348,3.3359,3.3369,3.3373,3.3383,3.3391,3.3401,3.3406,3.3419,3.3422,3.3425,3.3426,3.3425,3.3424,3.3429,3.3428,3.3428,3.3428,3.3428,3.3428,0,3.3274,3.3284,3.3302,3.3318,3.3323,3.3333,3.3346,3.3355,3.3362,3.3375,3.3379,3.3389,3.3402,3.3409,3.3424,3.3427,3.3442,3.3443,3.3439,3.3439,3.3446,3.3445,3.3467,3.347,3.3454,3.3455,3.3455,0,3.3283,3.3293,3.3311,3.3319,3.3327,3.334,3.3348,3.3357,3.3366,3.338,3.3387,3.34,3.3411,3.343,3.3439,3.345,3.3451,3.3458,3.3453,3.3451,3.3451,3.3451,3.3452,3.3459,3.3459,3.3459,3.3459,0,3.3296,3.3301,3.3314,3.3329,3.334,3.3352,3.3363,3.3369,3.3379,3.3389,3.3402,3.3411,3.3427,3.3439,3.3452,3.3458,3.346,3.3461,3.3463,3.3462,3.3459,3.3461,3.3441,3.346,3.346,3.346,3.346,3.346,3.3305,3.3315,3.3329,3.3343,3.3353,3.3364,3.3373,3.3382,3.3394,3.3409,3.3413,3.3427,3.3438,3.3455,3.3462,3.3472,3.3471,3.3474,3.3475,3.3476,3.3476,3.3457,3.3474,3.3474,3.3474,3.3474,3.3474,0,3.3319,3.3329,3.3342,3.3359,3.337,3.3372,3.3385,3.3394,3.3407,3.3417,3.3429,3.3444,3.3456,3.3466,3.3478,3.3484,3.3485,3.3487,3.3487,3.3488,3.3476,3.3473,3.3486,3.3486,3.3486,3.3486,3.3486,3.3486,3.3328,3.3344,3.3351,3.3372,3.3381,3.3396,3.3403,3.3413,3.3422,3.3439,3.345,3.3457,3.3467,3.348,3.3491,3.3493,3.3497,3.3499,3.3502,3.349,3.3489,3.3488,3.3485,3.35,3.35,3.3513,3.3513,3.3513]}]]